EHI
0 0 0 0 0 0 1 1 1 4 6 7 7 10 15 18 20 23 26 28 29 28 26 22 21 22 24 23 23 26 28 28 23 18 15 14 13 11 9 8 8 9 9 9
0 0 0 0 0 0 1 1 2 4 6 6 7 11 16 18 20 22 24 25 24 24 23 21 18 18 20 20 21 23 25 24 21 18 17 15 14 12 8 6 7 8 8 8
0 0 0 0 0 0 0 0 1 3 4 6 9 13 16 17 18 20 21 20 19 17 18 18 15 15 17 17 17 19 21 21 19 18 17 16 15 13 9 7 8 9 9 9
0 0 0 0 0 0 0 0 1 2 4 7 11 14 14 14 16 18 20 19 17 15 16 16 14 14 15 15 16 18 19 20 19 18 18 17 16 15 12 11 11 12 11 10
0 0 0 0 0 0 1 1 2 3 5 7 9 11 11 11 13 16 18 19 18 17 18 17 15 14 15 15 17 18 19 20 19 17 17 17 16 15 14 13 13 12 11 9
0 0 0 0 0 0 1 2 3 5 6 6 5 6 7 9 12 14 16 18 18 19 21 19 17 15 14 14 16 18 20 19 17 16 16 15 15 14 13 12 12 10 8 8
0 0 0 0 1 1 1 2 3 6 8 7 5 5 7 10 12 13 16 18 19 22 22 21 19 16 13 12 13 16 17 16 15 14 14 14 13 12 11 11 11 9 7 6
0 0 0 1 2 2 2 3 5 7 9 9 8 8 10 11 11 13 16 18 20 21 21 21 20 17 12 10 11 12 13 12 11 12 12 12 12 10 9 9 9 8 7 6
0 0 0 1 2 2 3 5 6 8 10 10 11 11 11 10 9 11 15 18 18 18 18 18 17 14 11 9 9 10 10 9 8 9 10 10 9 8 8 8 9 8 6 6
0 0 0 1 1 2 4 5 6 8 10 10 11 12 11 9 8 10 13 14 13 14 15 15 13 10 8 8 9 10 9 8 7 7 9 9 7 6 6 8 8 7 5 4
0 0 1 3 3 3 4 5 7 9 9 9 10 11 10 9 9 10 10 9 9 10 11 12 10 8 6 8 9 10 9 8 7 7 7 7 5 3 4 6 6 5 3 3
0 1 2 4 5 4 4 6 8 8 8 8 9 9 9 8 8 9 10 8 7 7 8 9 9 8 7 9 10 10 8 7 7 6 5 5 4 2 2 3 3 2 1 2
0 1 2 3 3 3 4 7 8 8 6 6 7 7 7 8 8 10 11 10 7 6 6 6 7 8 9 9 9 9 8 6 5 5 4 4 4 3 1 1 1 0 0 1
0 0 1 1 1 3 5 8 9 8 6 5 4 5 8 10 11 12 12 10 8 6 5 4 5 6 7 8 9 8 7 6 5 3 3 4 5 4 2 0 0 0 0 0
0 0 0 0 1 2 5 7 8 7 6 5 3 5 9 12 13 12 12 10 8 6 4 3 4 4 4 6 7 7 7 6 5 4 3 3 4 4 2 0 0 0 0 0
0 0 1 1 1 2 4 5 5 5 5 4 3 4 8 11 12 12 11 10 8 5 3 3 3 2 2 4 6 7 7 6 6 5 4 3 3 2 0 0 0 0 0 0
0 1 2 2 1 1 2 3 2 3 3 2 1 2 6 9 11 11 10 9 7 4 3 3 2 1 1 2 4 5 6 6 6 6 5 4 2 1 0 0 0 0 0 0
2 2 3 3 3 2 2 2 2 2 2 1 0 2 5 8 9 8 8 7 6 3 2 1 1 1 0 1 2 4 5 6 6 6 5 4 2 1 0 0 0 0 0 0
4 4 4 3 3 3 3 3 2 1 1 0 1 3 6 7 7 6 6 6 4 2 1 0 0 1 0 0 1 2 4 6 6 6 5 3 1 1 0 0 0 0 0 0
3 2 2 3 3 3 3 2 1 0 0 0 0 2 4 6 6 6 6 4 2 0 0 0 0 0 0 0 0 1 3 5 6 5 4 3 2 1 1 2 1 0 0 0
1 1 2 3 3 3 2 1 0 0 0 0 0 1 2 4 5 5 4 2 0 0 0 0 0 0 0 0 0 0 2 4 5 4 3 3 3 3 3 3 2 1 0 0
0 1 2 2 2 2 1 0 0 0 0 0 0 0 2 3 3 3 2 0 0 0 0 0 0 0 0 0 0 0 1 2 2 2 3 3 3 3 3 3 3 2 1 0
0 0 1 1 1 1 1 0 0 0 0 1 0 0 1 1 1 1 1 0 0 0 0 0 0 0 0 0 0 0 0 0 0 1 1 2 2 3 3 3 3 2 1 0
0 0 0 0 0 1 1 0 0 0 0 0 0 0 0 0 0 0 1 0 0 0 0 0 0 0 0 0 0 0 0 0 0 0 0 1 1 1 2 3 3 3 1 0
0 0 0 0 0 0 0 0 0 0 0 0 0 0 0 0 0 0 0 0 0 0 0 0 0 0 0 0 0 0 0 0 0 0 0 0 0 0 1 2 3 3 2 1
0 0 0 0 0 0 0 0 0 0 0 0 0 0 0 0 0 0 0 0 0 0 0 0 0 0 0 0 0 0 0 0 0 0 0 0 0 0 0 2 3 3 3 2
0 0 0 0 0 0 0 0 0 0 0 0 0 0 0 0 0 0 0 0 0 0 0 0 0 0 0 0 0 0 0 0 0 0 0 0 0 0 1 2 3 3 3 3
Wind_Speed
3 3 1 2 4 3 2 6 7 6 6 5 5 6 5 6 6 6 6 6 6 6 5 5 5 4 4 4 4 5 5 4 4 3 3 3 3 3 2 2 2 2 2 2
2 2 2 3 5 3 1 1 3 4 2 3 3 5 6 6 8 7 5 4 5 5 5 5 5 4 4 4 4 4 4 4 3 3 3 3 3 2 2 2 2 1 1 2
2 3 4 3 4 2 2 1 3 4 4 3 4 5 7 7 7 8 6 5 5 5 5 5 5 5 5 4 4 4 4 4 3 3 3 2 2 2 2 2 1 1 2 2
1 3 2 5 2 2 4 3 3 2 2 4 5 4 4 6 7 6 5 5 4 3 4 3 4 4 4 4 4 4 3 3 3 3 2 2 2 2 3 2 2 2 2 2
3 2 3 4 4 1 3 2 4 3 3 4 5 7 4 2 4 5 5 4 4 4 4 3 3 4 4 4 4 4 3 2 2 3 3 2 3 3 3 2 2 3 2 3
3 3 4 5 6 3 5 2 4 2 4 3 5 4 2 1 2 4 4 4 3 4 4 4 3 4 5 3 3 3 3 3 2 2 2 3 3 3 2 2 3 2 2 2
3 2 4 5 6 3 4 4 3 2 3 4 4 4 3 2 4 4 5 4 4 4 4 3 3 4 4 3 2 2 2 2 2 2 3 3 2 2 1 1 1 1 1 1
2 1 5 5 3 3 5 3 1 3 4 4 5 5 4 4 4 4 4 4 5 4 3 2 3 4 3 1 1 1 2 2 1 2 2 1 1 1 1 1 1 1 1 2
4 5 5 1 2 2 4 3 2 3 4 5 5 5 4 3 3 3 4 4 4 5 3 2 2 3 3 1 1 2 1 1 1 1 1 1 1 1 1 1 1 1 2 2
2 1 1 2 2 1 2 2 2 4 5 5 5 5 5 4 3 2 2 2 3 4 3 1 1 1 2 1 1 2 1 1 1 1 1 1 1 1 2 2 2 2 2 2
1 1 2 4 3 2 2 3 4 4 5 5 6 5 5 4 3 2 2 1 2 3 2 2 1 1 1 1 2 1 0 1 1 1 1 1 1 2 3 3 4 4 3 3
4 4 3 3 2 1 3 3 2 3 3 3 5 4 4 3 2 2 3 2 2 2 2 1 1 0 0 0 2 2 0 1 1 1 2 2 2 2 3 3 4 5 6 4
3 2 2 2 1 2 1 2 3 4 4 3 2 3 4 3 2 2 3 3 3 2 2 1 1 1 1 1 1 2 2 2 2 2 2 2 2 2 2 3 3 3 4 5
0 2 2 1 1 1 2 3 4 4 3 3 3 3 3 3 2 2 2 3 3 3 2 1 1 1 2 1 1 1 2 3 2 2 2 3 3 3 2 2 1 2 3 4
1 1 3 1 1 2 2 3 4 3 3 3 2 2 2 3 2 2 2 2 2 2 1 1 1 2 2 1 1 2 2 2 2 2 2 2 2 2 2 2 2 2 1 2
1 1 2 2 2 2 2 2 2 1 2 2 1 1 1 2 2 2 1 2 3 2 2 2 2 3 2 1 1 2 2 3 2 2 2 2 2 1 1 2 2 2 2 2
2 1 1 2 2 1 1 2 2 2 1 1 2 2 1 1 1 0 1 1 2 2 2 2 3 3 2 1 2 2 2 3 3 2 2 2 2 2 2 2 2 3 3 3
2 2 2 2 2 2 1 2 2 2 2 2 2 2 2 2 2 2 2 1 0 1 2 3 2 1 2 2 2 2 2 2 2 2 2 2 2 2 2 2 2 2 2 2
0 1 2 1 1 2 2 2 2 1 1 1 2 2 2 2 1 1 1 1 1 2 4 3 3 1 2 3 2 1 1 1 2 2 2 2 2 2 2 2 2 2 2 2
1 1 1 1 1 2 2 1 1 1 1 1 2 1 1 1 1 0 0 1 3 4 4 3 2 2 2 3 3 1 2 2 2 2 2 2 2 3 3 3 3 2 2 2
0 1 1 1 1 1 1 2 2 1 0 1 1 1 2 1 1 1 1 2 4 3 2 2 1 2 2 3 3 1 2 2 2 2 2 2 2 2 2 2 2 2 2 2
0 0 0 0 1 0 1 1 1 1 0 0 0 1 1 1 1 0 1 2 3 2 1 1 2 2 2 3 2 2 2 2 2 1 1 1 1 2 1 1 1 1 1 1
1 1 1 1 1 1 1 1 0 1 1 1 1 1 1 2 2 2 2 3 2 2 1 2 3 3 3 2 1 1 1 1 1 1 1 1 1 2 2 1 1 1 1 1
1 1 1 1 1 1 1 2 2 1 1 1 1 1 2 1 1 2 3 3 3 3 2 3 4 4 3 1 1 1 1 1 1 1 1 1 1 1 1 1 1 1 1 1
2 2 1 1 1 1 2 2 1 0 0 0 0 1 1 1 2 2 1 1 2 2 2 3 4 4 2 1 1 1 1 1 1 1 2 1 1 1 1 1 1 1 1 1
1 1 1 2 2 2 1 1 1 1 1 0 1 1 1 1 1 0 0 1 2 2 2 2 2 2 1 1 2 2 1 1 1 1 1 1 1 1 1 1 1 1 1 1
1 1 1 1 0 0 1 1 1 1 1 1 1 1 1 1 0 1 1 1 1 2 2 2 1 1 1 2 2 1 1 0 1 1 1 1 1 1 2 2 1 1 1 1
Wind_Direction
203 227 239 277 295 288 206 187 180 204 191 216 193 168 151 133 120 116 124 131 138 143 144 144 149 156 163 169 170 169 166 173 188 193 188 192 206 214 211 212 222 230 235 244
337 329 16 14 358 1 19 95 157 138 191 225 175 120 112 120 122 119 126 140 142 144 147 152 159 161 160 169 165 160 165 178 182 181 185 190 201 206 214 229 237 231 230 231
288 311 34 351 329 28 47 9 148 173 216 161 120 133 145 140 131 133 136 149 158 166 166 164 162 157 165 171 164 158 170 176 178 181 184 194 197 191 212 223 230 232 234 226
149 42 209 234 268 111 91 30 33 109 134 138 148 144 130 132 133 136 136 147 157 162 156 160 161 156 153 144 155 164 169 173 177 171 181 191 186 207 225 225 216 224 237 235
126 160 252 297 318 312 124 6 6 61 94 108 103 74 47 69 121 136 137 145 155 150 142 142 149 151 138 137 148 154 167 181 187 178 186 197 209 222 228 224 230 229 230 226
124 150 210 253 290 291 101 16 337 84 115 117 98 95 250 305 108 114 107 113 127 121 113 120 133 134 130 138 144 169 180 189 197 186 197 213 222 224 225 224 230 231 246 243
145 180 245 265 290 38 103 237 296 92 123 132 136 165 178 120 93 101 106 108 111 110 112 128 130 119 120 122 152 190 175 177 188 193 196 203 216 219 227 234 234 235 242 260
126 154 255 293 20 113 195 211 130 90 99 110 115 107 104 106 102 107 105 101 106 103 94 98 108 113 114 145 197 148 147 158 182 196 203 201 204 232 224 208 215 235 248 271
177 208 241 315 112 161 151 129 127 123 121 117 117 116 113 110 108 114 120 116 112 112 103 87 100 118 133 207 144 105 111 171 197 205 213 197 193 215 228 215 212 231 232 247
73 309 330 35 44 46 98 129 146 136 134 129 126 126 116 112 113 106 97 113 113 113 113 110 106 115 152 166 125 112 129 218 199 186 228 230 209 200 200 213 218 225 233 246
115 264 14 1 12 32 54 76 91 101 122 139 132 133 135 128 120 111 105 99 109 124 142 164 150 132 115 118 118 118 162 236 231 215 209 219 241 235 223 224 213 209 216 214
209 220 176 255 286 42 67 79 95 104 94 98 117 127 128 133 137 129 125 114 111 115 126 132 119 109 315 181 138 137 189 255 232 221 222 221 231 290 301 269 255 228 216 208
204 210 182 240 342 47 76 100 109 113 119 111 105 125 132 133 135 130 125 127 139 148 152 153 140 196 246 221 187 181 209 236 245 232 224 224 219 216 269 314 324 286 242 225
90 81 43 1 5 41 89 94 92 93 98 111 119 114 123 121 119 131 151 164 159 147 144 148 148 246 257 235 230 222 232 242 245 239 229 224 222 223 219 215 256 299 290 256
264 161 179 167 85 76 82 89 90 86 83 81 101 112 125 140 157 188 199 174 142 128 155 169 235 269 268 248 252 250 248 252 251 249 239 231 229 228 226 219 224 245 279 291
162 76 113 106 109 102 89 92 102 104 111 107 105 135 155 171 184 198 200 169 153 182 216 215 244 263 274 277 275 264 255 263 258 247 239 229 220 216 219 210 218 230 238 250
147 211 197 163 162 152 139 148 149 159 151 146 181 188 176 136 105 17 267 222 187 210 226 220 245 265 270 252 247 251 255 269 267 259 242 227 215 209 207 207 221 237 241 238
146 175 178 175 168 161 158 148 149 150 164 180 164 140 144 151 176 226 256 265 37 322 273 243 236 262 286 274 256 253 253 250 238 239 240 234 229 219 210 213 221 229 249 261
73 160 154 129 132 138 135 144 168 181 184 155 146 160 171 178 194 214 225 179 209 260 266 256 250 261 277 276 276 257 251 247 243 248 243 237 231 221 213 214 220 222 224 221
315 113 106 99 105 134 145 159 147 152 171 143 121 118 135 201 228 309 249 221 232 238 244 247 252 258 261 273 281 263 255 243 240 245 236 227 227 225 218 212 210 221 226 214
40 86 105 115 119 151 167 162 144 142 279 129 140 194 223 233 228 187 171 275 284 277 259 252 246 260 269 280 276 260 258 255 246 233 227 226 228 230 230 226 223 224 219 209
44 57 156 159 116 240 246 170 149 144 140 204 245 239 222 239 245 238 234 236 262 268 262 269 262 268 280 283 267 261 258 252 242 232 223 213 210 216 220 219 228 247 244 213
171 154 169 204 180 194 284 296 224 179 193 210 222 235 218 214 200 189 259 266 251 252 251 260 268 277 281 277 272 276 277 260 235 220 220 212 207 204 198 200 201 204 228 227
164 170 193 208 133 112 263 270 263 241 191 180 213 202 178 182 270 250 233 245 250 250 251 260 267 275 280 281 291 297 309 288 253 239 228 216 211 200 196 200 208 223 226 224
173 180 183 160 159 208 233 248 250 236 109 125 284 272 233 189 213 250 256 254 244 233 255 261 257 260 254 254 257 249 248 248 258 248 231 218 206 192 193 198 213 221 216 210
161 181 188 191 195 197 187 176 191 211 173 124 316 300 297 300 283 280 278 281 272 266 275 277 268 252 241 249 253 251 252 269 281 280 255 208 201 205 217 212 212 211 206 209
63 85 94 43 14 148 145 150 159 177 170 166 248 290 312 328 314 273 258 271 291 289 290 293 295 279 258 254 253 248 225 215 225 214 223 198 190 214 216 208 197 189 196 205